Date,TemperatureHighF,TemperatureAvgF,TemperatureLowF,DewpointHighF,DewpointAvgF,DewpointLowF,HumidityHigh,HumidityAvg,HumidityLow,PressureMaxIn,PressureMinIn,WindSpeedMaxMPH,WindSpeedAvgMPH,GustSpeedMaxMPH,PrecipitationSumIn
2013-1-1,45,40,32,43,38,25,97,93,74,29.83,29.62,8,3,15,0.00
2013-1-2,35,30,26,26,16,9,75,56,35,29.88,29.80,7,2,10,0.00
2013-1-3,42,32,22,24,16,10,82,55,29,30.03,29.88,7,1,10,0.00
2013-1-4,45,32,22,27,19,13,87,61,29,30.12,30.00,5,0,6,0.00
2013-1-5,47,37,26,32,24,18,86,61,33,30.00,29.88,8,2,10,0.00
2013-1-6,50,39,30,37,26,18,89,62,28,30.00,29.85,8,2,10,0.00
2013-1-7,50,35,23,24,17,10,80,51,24,30.03,29.83,8,1,9,0.00
2013-1-8,60,46,30,32,25,17,72,47,26,29.88,29.77,8,2,9,0.00
2013-1-9,55,54,51,54,50,34,96,88,46,29.94,29.83,6,2,8,0.00
2013-1-10,66,61,55,64,59,54,97,93,71,29.88,29.53,15,5,25,0.00
2013-1-11,66,60,53,61,48,34,94,68,32,29.68,29.56,11,5,15,0.00
2013-1-12,72,68,64,66,60,54,94,77,55,29.59,29.35,11,5,17,0.00
2013-1-13,69,44,30,59,40,21,96,85,57,29.85,29.38,14,6,19,0.00
2013-1-14,31,28,26,22,18,12,82,65,50,30.00,29.85,14,5,20,0.00
2013-1-15,32,28,25,27,23,19,85,80,77,29.85,29.68,8,3,14,0.00
2013-1-16,32,31,29,30,28,26,93,90,82,29.80,29.65,0,0,0,0.00
2013-1-17,47,36,29,34,27,22,93,73,38,30.09,29.74,9,2,15,0.00
2013-1-18,50,36,24,32,20,13,90,58,24,30.18,29.97,6,1,7,0.00
2013-1-19,56,43,33,25,22,19,68,45,25,29.97,29.80,11,4,15,0.00
2013-1-20,58,44,31,36,22,14,81,47,22,29.88,29.74,8,2,11,0.00
2013-1-21,42,34,24,20,10,4,56,38,23,29.94,29.77,11,4,17,0.00
2013-1-22,41,31,22,15,10,6,71,43,28,30.03,29.91,7,2,8,0.00
2013-1-23,54,40,26,34,20,9,72,47,29,29.94,29.77,6,1,8,0.00
2013-1-24,45,41,36,37,15,8,75,37,25,30.03,29.80,10,4,15,0.00
2013-1-25,50,40,31,46,28,11,90,65,28,29.85,29.68,8,2,11,0.00
2013-1-26,56,43,30,41,24,18,94,56,25,29.94,29.85,7,1,8,0.00
2013-1-27,65,55,47,46,33,22,66,45,35,29.88,29.74,9,4,12,0.00
2013-1-28,70,62,57,55,48,43,85,61,40,29.80,29.68,14,6,17,0.00
2013-1-29,75,67,58,59,51,43,91,60,33,29.68,29.12,19,8,30,0.00
2013-1-30,67,48,30,63,35,13,95,64,36,29.65,29.12,15,4,26,0.00
2013-1-31,52,39,26,27,18,14,77,46,26,29.94,29.65,12,4,17,0.00